Regional Weather Roundup
Issued by NWS Bismarck, ND

Home | Current Version | Previous Version | Text Only | Print | Product List | Glossary On
Versions: 1 2 3 4 5 6 7 8 9 10 11 12 13 14 15 16 17 18 19 20 21 22 23 24 25 26 27 28 29 30 31 32 33 34 35 36 37 38 39 40 41 42 43 44 45 46 47 48 49 50
000
ASUS43 KBIS 020410
RWRBIS

NWR BROADCAST TEXT
NATIONAL WEATHER SERVICE BISMARCK ND
1100 PM CDT SUN MAY 01 2016

NOTE: "FAIR" INDICATES FEW OR NO CLOUDS BELOW 12,000 FEET WITH NO
SIGNIFICANT WEATHER AND/OR OBSTRUCTIONS TO VISIBILITY.


CITY           SKY/WX    TMP DP  RH WIND       PRES   REMARKS
WILLISTON      CLEAR     52  32  46 SW8       30.12S
MINOT          CLEAR     54  27  35 S6        30.10F
MINOT AFB      PTCLDY    49  27  42 S9        30.08F
BISMARCK       CLEAR     44  33  65 CALM      30.15F
DICKINSON      CLEAR     45  28  51 NW7       30.15F
GARRISON         N/A     45  27  49 CALM      30.13S
HETTINGER ARPT PTCLDY    36  30  79 N3        30.19S
JAMESTOWN      CLEAR     48  30  49 SW7       30.13F
BEACH          FAIR      41  32  70 S3        30.21S
CARRINGTON     FAIR      50  25  37 CALM      30.16S
HAZEN          FAIR      41  32  70 S3        30.16S
LINTON         FAIR      39  32  75 S7        30.18F
MANDAN         FAIR      46  30  53 SW6       30.16S
OAKES            N/A    N/A N/A N/A MISG        N/A
RUGBY          FAIR      48  30  49 S7        30.10F
STANLEY        FAIR      45  30  57 SW6       30.13F
TIOGA          MOCLDY    46  30  53 SW12      30.15F
WATFORD CITY   FAIR      45  32  61 SW6       30.14S
$$

CITY           SKY/WX    TMP DP  RH WIND       PRES   REMARKS
GRAND FORKS    PTCLDY    52  29  41 SE5       30.12S
GRAND FORKS AF PTCLDY    51  28  41 S5        30.12S
DEVILS LAKE    CLEAR     51  35  54 SW6       30.13S
FARGO          CLEAR     49  26  41 CALM      30.13S
CANDO          FAIR      48  27  43 S6        30.12F
CAVALIER       CLOUDY    54  32  43 SW3       30.11S
GRAFTON        FAIR      46  36  66 S8        30.13S
GWINNER        FAIR      46  32  57 CALM      30.15S
LANGDON        FAIR      52  27  37 S13       30.11F
ROLLA          MOCLDY    45  30  57 S6        30.10F
WALHALLA       FAIR      55  27  33 SW9       30.10F
$$

CITY           SKY/WX    TMP DP  RH WIND       PRES   REMARKS
ABERDEEN       CLEAR     42  34  73 W5        30.16S
MOBRIDGE       CLEAR     42  33  70 CALM      30.16R
BUFFALO          N/A     49  30  48 NW8       30.15R
RAPID CITY     CLEAR     38  29  70 W3        30.24R
GLASGOW        PTCLDY    54  34  46 W7        30.16F
SIDNEY         CLEAR     52  30  43 W7        30.15S
WOLF POINT     PTCLDY    50  37  61 W3        30.16R
GLENDIVE       CLOUDY    46  34  61 N9        30.20S
MILES CITY     CLEAR     49  35  58 SW7       30.19S
BAKER          CLEAR     47  32  56 SW8       30.20S
$$

CITY           SKY/WX    TMP DP  RH WIND       PRES   REMARKS
BILLINGS       PTCLDY    54  30  40 SE5       30.22R
GREAT FALLS    CLEAR     46  33  60 NE7       30.18S
REGINA         MOCLDY    50  32  50 W10       30.06F
$$





USA.gov is the U.S. government's official web portal to all federal, state and local government web resources and services.